Terminal Aerodrome Forecast
Issued by NWS Denver/Boulder, CO

Home | Current Version | Previous Version | Text Only | Print | Product List | Glossary On
Versions: 1 2 3 4 5 6 7 8 9 10 11 12 13 14 15 16 17 18 19 20 21 22 23 24 25 26 27 28 29 30 31 32 33 34 35 36 37 38 39 40 41 42 43 44 45 46 47 48 49 50
000
FTUS45 KBOU 252240 AAE
TAFDEN
TAF AMD
KDEN 252240Z 2523/2624 02010G18KT 5SM -SN BR OVC012
      TEMPO 2523/2602 2SM -SN BR OVC005
     FM260200 01012G22KT 1SM -SN BR BKN007 OVC014
      TEMPO 2602/2605 1/2SM SN VV003
     FM260500 36010G18KT 3SM -SN BR BKN007 OVC014
      TEMPO 2605/2609 1SM -SN BR OVC005
     FM261200 36010KT 4SM -SN BR BKN007 OVC014
     FM261700 04010KT 2SM -SN BR BKN005 OVC010=

USA.gov is the U.S. government's official web portal to all federal, state and local government web resources and services.